SCP
0 0 -0 -0 -0 -0 -0 -0 -0 -0 -0 0 0 -0 -0 0 0 0 0 0 0 0 0 0 0 0 0 0 0 0 0 -0 -0
-0 0 -0 -0 -0 0 -0 -0 -0 -0 -0 -0 0 0 0 -0 -0 -0 -0 -0 0 0 0 0 0 0 0 0 0 0 0 0 0
-0 -0 -0 -0 0 0 -0 -0 -0 -0 -0 -0 -0 -0 -0 -0 -0 -0 0 0 0 0 0 0 0 0 0 0 0 0 0 0 0
-0 -0 -0 0 0 0 -0 -0 -0 -0 -0 -0 -0 -0 -0 -0 -0 0 0 0 0 0 0 0 0 0 0 0 0 0 0 0 0
0 0 -0 -0 0 -0 0 -0 -0 -0 -0 -0 -0 -0 0 -0 0 0 0 0 0 0 0 0 0 0 0 0 0 0 0 0 0
0 1 0 -0 -0 -0 -0 -0 -0 -0 -0 -0 -0 -0 -0 -0 0 0 0 0 0 0 0 0 0 0 0 0 0 0 0 0 0
0 0 -0 -0 -0 -0 -0 -0 -0 -0 -0 0 1 1 1 0 0 0 0 0 0 0 0 0 0 0 0 0 0 0 0 0 0
1 0 0 0 0 -0 -0 0 -0 -0 0 0 1 1 1 0 1 1 0 0 0 0 0 0 0 0 0 0 0 0 0 0 0
0 1 0 0 1 -0 -0 -0 0 0 0 0 1 1 1 1 1 1 0 0 0 0 0 0 0 0 0 0 0 0 0 0 0
0 1 1 0 1 1 1 0 1 1 1 1 1 2 1 1 1 0 0 0 0 0 0 0 0 0 0 0 0 0 0 0 0
0 1 2 2 2 3 1 1 1 1 1 2 2 2 1 1 1 0 0 0 0 0 0 0 0 0 0 0 0 0 0 0 0
1 0 0 2 2 3 3 2 2 2 2 2 2 2 1 1 1 1 0 0 0 0 0 0 0 0 0 0 0 0 0 0 0
0 0 -0 2 2 3 4 4 3 3 3 2 2 2 1 1 1 1 1 0 0 0 0 0 0 0 0 0 0 0 0 0 0
1 1 1 3 4 6 7 7 5 3 1 1 1 1 1 1 1 1 1 1 1 0 0 0 0 0 0 0 0 0 0 0 0
3 4 4 5 7 1 2 5 4 1 1 0 1 1 0 1 1 1 1 1 0 0 0 0 0 0 0 0 0 0 0 0 0
3 4 4 3 3 2 3 0 1 0 0 0 0 0 1 2 1 0 1 0 0 0 0 0 0 0 0 0 0 0 0 0 0
2 2 2 2 3 2 2 1 0 -0 0 0 1 1 1 1 1 0 0 0 0 0 0 0 0 0 0 0 0 0 0 0 0
4 5 3 2 2 1 1 1 1 1 1 1 0 0 1 1 0 0 0 0 0 0 0 0 0 0 0 0 0 0 0 0 0
2 2 2 2 1 1 1 0 0 0 0 1 0 0 0 0 0 0 0 0 0 0 0 0 0 0 0 0 0 0 0 0 0
1 1 1 1 1 1 1 1 0 0 0 1 1 1 1 0 0 0 0 0 0 0 0 0 0 0 0 0 0 0 0 0 0
Wind_Speed_500mb
20 24 35 38 40 43 39 34 33 31 31 33 31 27 23 18 16 9 17 12 8 6 3 7 18 11 14 15 16 18 17 6 6
26 22 37 41 40 43 43 41 37 34 30 28 27 25 22 19 17 17 17 12 1 4 12 11 9 9 12 11 11 10 5 8 16
25 28 32 38 42 40 43 42 38 37 33 33 28 25 21 18 14 15 19 13 19 20 17 20 19 8 6 9 11 11 6 8 17
34 35 33 38 42 43 41 43 42 40 37 34 29 34 20 25 24 26 11 10 8 9 5 2 4 2 2 5 9 13 11 9 16
41 45 37 38 43 46 46 47 43 43 42 35 34 32 30 28 24 18 18 11 5 4 1 3 4 4 5 5 8 15 13 12 14
44 44 42 40 45 50 52 51 47 45 45 40 38 44 41 31 31 25 17 11 7 3 2 4 3 4 4 6 7 12 12 10 7
40 41 47 44 46 51 52 54 54 50 47 46 45 44 41 41 31 30 20 16 11 4 3 3 5 6 8 6 9 6 8 14 18
28 39 42 42 48 56 54 54 54 56 53 51 44 36 42 39 34 34 29 17 9 4 4 4 8 8 8 7 9 10 16 18 10
20 37 37 45 43 59 61 59 56 58 51 56 47 43 43 41 47 40 27 16 8 5 6 8 8 7 7 6 8 17 23 26 20
12 36 45 46 51 57 61 59 59 54 51 54 49 46 43 45 44 33 22 14 8 8 9 10 11 9 11 9 16 24 25 20 17
25 22 49 55 55 56 62 60 57 53 50 50 47 48 46 44 35 26 20 13 11 11 11 12 14 13 15 15 17 21 23 24 19
14 26 30 60 62 59 63 60 51 57 55 47 49 50 49 38 31 26 20 15 13 13 11 12 13 13 15 18 14 22 24 26 24
19 24 39 63 61 64 65 66 64 59 55 49 50 44 37 30 27 20 14 11 13 14 13 11 10 15 20 18 21 25 22 21 22
15 15 17 47 59 76 78 77 70 70 59 52 45 35 28 29 26 20 14 16 18 15 13 14 18 22 20 22 19 19 22 22 18
16 21 7 18 51 38 49 54 62 49 44 43 40 31 24 20 19 15 16 14 14 15 13 15 15 15 15 12 23 23 23 17 19
2 7 5 14 19 6 15 31 37 49 44 37 35 33 26 20 25 16 21 18 13 13 14 8 11 14 24 21 25 25 17 22 25
7 6 1 22 17 23 38 44 38 17 21 37 30 21 19 24 16 19 19 14 12 15 9 13 22 19 20 20 21 21 25 25 16
10 21 12 9 27 30 37 32 29 39 43 19 21 23 15 14 11 15 15 15 9 16 20 26 27 25 23 21 17 21 14 11 11
5 6 5 6 11 19 14 12 21 18 14 22 23 20 13 12 10 20 15 11 19 24 22 23 21 22 28 38 41 40 40 39 39
21 17 6 18 21 20 25 22 16 16 15 21 19 8 7 10 14 17 14 16 19 22 25 24 26 27 21 20 21 25 30 35 36
Wind_Direction_500mb
144 152 151 160 160 165 170 170 176 182 193 191 194 199 198 207 193 206 241 263 269 326 279 268 284 306 294 299 284 280 274 333 305
152 155 140 151 160 163 169 171 173 180 196 186 185 189 176 187 191 205 206 201 213 244 222 278 292 301 307 323 310 296 281 265 258
145 141 145 152 164 168 171 171 173 178 184 179 171 179 191 190 182 196 215 222 194 216 252 241 258 290 323 300 319 321 300 269 291
153 150 157 159 166 168 173 174 173 176 168 168 174 183 189 186 197 217 190 219 192 201 242 336 338 2 315 337 351 333 332 339 336
150 150 162 165 168 168 173 175 177 176 171 175 181 196 179 182 189 174 193 208 185 169 96 71 26 346 344 13 323 322 349 9 2
135 150 161 170 173 175 176 177 179 182 177 180 186 179 182 201 197 179 206 176 212 174 152 155 283 340 289 272 291 346 360 345 328
152 159 165 177 181 178 182 182 182 185 182 181 189 193 189 201 189 192 204 190 197 198 223 197 207 190 248 262 301 352 331 6 358
154 162 175 186 185 181 185 183 186 190 186 188 200 190 193 204 179 200 206 206 204 216 202 231 229 244 254 285 19 294 252 317 315
190 173 188 188 194 181 181 188 188 199 187 194 195 189 194 195 199 208 206 210 207 229 249 262 266 259 248 278 261 270 273 290 298
239 192 187 188 189 182 179 185 186 188 191 193 192 191 198 206 210 210 209 208 223 254 269 278 282 267 254 255 274 289 288 292 297
293 236 193 194 190 188 188 187 191 197 199 192 190 190 201 211 211 204 209 214 241 270 279 267 276 276 280 278 269 293 293 298 306
325 283 255 194 184 185 181 183 197 186 196 192 190 190 202 208 201 203 209 231 260 275 270 275 290 306 292 288 276 282 293 306 305
309 278 260 191 186 182 181 179 194 187 183 187 187 192 201 200 193 201 221 248 262 265 261 265 244 253 277 280 276 277 292 301 300
336 317 239 182 185 185 176 179 183 179 178 181 182 183 191 184 188 202 223 247 259 262 274 247 247 266 269 267 272 304 328 307 304
31 52 104 168 188 167 170 180 167 156 165 162 162 164 177 198 211 205 229 251 264 274 278 288 291 302 334 294 276 293 327 321 317
15 73 109 187 195 169 129 296 124 144 153 157 155 154 157 237 220 226 235 261 273 297 300 340 305 290 296 309 270 290 295 314 327
153 185 281 119 161 165 131 123 109 96 180 153 160 219 199 196 221 228 254 274 309 311 334 288 283 285 281 277 287 273 280 291 296
111 99 118 118 131 151 140 146 186 205 192 186 179 191 170 207 246 257 286 306 288 252 256 263 264 260 257 250 254 257 268 249 245
142 106 130 146 151 150 151 136 137 156 151 179 158 172 185 207 221 262 287 296 297 302 296 296 304 308 275 261 258 263 269 266 269
88 78 104 116 116 95 117 130 135 130 139 155 161 149 208 226 238 246 260 265 275 283 298 292 298 302 293 298 311 308 290 277 274
Wind_Speed_850mb
20 24 35 38 40 43 39 34 33 31 31 33 31 27 23 18 16 9 17 12 8 6 3 7 18 11 14 15 16 18 17 6 6
26 22 37 41 40 43 43 41 37 34 30 28 27 25 22 19 17 17 17 12 1 4 12 11 9 9 12 11 11 10 5 8 16
25 28 32 38 42 40 43 42 38 37 33 33 28 25 21 18 14 15 19 13 19 20 17 20 19 8 6 9 11 11 6 8 17
34 35 33 38 42 43 41 43 42 40 37 34 29 34 20 25 24 26 11 10 8 9 5 2 4 2 2 5 9 13 11 9 16
41 45 37 38 43 46 46 47 43 43 42 35 34 32 30 28 24 18 18 11 5 4 1 3 4 4 5 5 8 15 13 12 14
44 44 42 40 45 50 52 51 47 45 45 40 38 44 41 31 31 25 17 11 7 3 2 4 3 4 4 6 7 12 12 10 7
40 41 47 44 46 51 52 54 54 50 47 46 45 44 41 41 31 30 20 16 11 4 3 3 5 6 8 6 9 6 8 14 18
28 39 42 42 48 56 54 54 54 56 53 51 44 36 42 39 34 34 29 17 9 4 4 4 8 8 8 7 9 10 16 18 10
20 37 37 45 43 59 61 59 56 58 51 56 47 43 43 41 47 40 27 16 8 5 6 8 8 7 7 6 8 17 23 26 20
12 36 45 46 51 57 61 59 59 54 51 54 49 46 43 45 44 33 22 14 8 8 9 10 11 9 11 9 16 24 25 20 17
25 22 49 55 55 56 62 60 57 53 50 50 47 48 46 44 35 26 20 13 11 11 11 12 14 13 15 15 17 21 23 24 19
14 26 30 60 62 59 63 60 51 57 55 47 49 50 49 38 31 26 20 15 13 13 11 12 13 13 15 18 14 22 24 26 24
19 24 39 63 61 64 65 66 64 59 55 49 50 44 37 30 27 20 14 11 13 14 13 11 10 15 20 18 21 25 22 21 22
15 15 17 47 59 76 78 77 70 70 59 52 45 35 28 29 26 20 14 16 18 15 13 14 18 22 20 22 19 19 22 22 18
16 21 7 18 51 38 49 54 62 49 44 43 40 31 24 20 19 15 16 14 14 15 13 15 15 15 15 12 23 23 23 17 19
2 7 5 14 19 6 15 31 37 49 44 37 35 33 26 20 25 16 21 18 13 13 14 8 11 14 24 21 25 25 17 22 25
7 6 1 22 17 23 38 44 38 17 21 37 30 21 19 24 16 19 19 14 12 15 9 13 22 19 20 20 21 21 25 25 16
10 21 12 9 27 30 37 32 29 39 43 19 21 23 15 14 11 15 15 15 9 16 20 26 27 25 23 21 17 21 14 11 11
5 6 5 6 11 19 14 12 21 18 14 22 23 20 13 12 10 20 15 11 19 24 22 23 21 22 28 38 41 40 40 39 39
21 17 6 18 21 20 25 22 16 16 15 21 19 8 7 10 14 17 14 16 19 22 25 24 26 27 21 20 21 25 30 35 36
Wind_Direction_850mb
144 152 151 160 160 165 170 170 176 182 193 191 194 199 198 207 193 206 241 263 269 326 279 268 284 306 294 299 284 280 274 333 305
152 155 140 151 160 163 169 171 173 180 196 186 185 189 176 187 191 205 206 201 213 244 222 278 292 301 307 323 310 296 281 265 258
145 141 145 152 164 168 171 171 173 178 184 179 171 179 191 190 182 196 215 222 194 216 252 241 258 290 323 300 319 321 300 269 291
153 150 157 159 166 168 173 174 173 176 168 168 174 183 189 186 197 217 190 219 192 201 242 336 338 2 315 337 351 333 332 339 336
150 150 162 165 168 168 173 175 177 176 171 175 181 196 179 182 189 174 193 208 185 169 96 71 26 346 344 13 323 322 349 9 2
135 150 161 170 173 175 176 177 179 182 177 180 186 179 182 201 197 179 206 176 212 174 152 155 283 340 289 272 291 346 360 345 328
152 159 165 177 181 178 182 182 182 185 182 181 189 193 189 201 189 192 204 190 197 198 223 197 207 190 248 262 301 352 331 6 358
154 162 175 186 185 181 185 183 186 190 186 188 200 190 193 204 179 200 206 206 204 216 202 231 229 244 254 285 19 294 252 317 315
190 173 188 188 194 181 181 188 188 199 187 194 195 189 194 195 199 208 206 210 207 229 249 262 266 259 248 278 261 270 273 290 298
239 192 187 188 189 182 179 185 186 188 191 193 192 191 198 206 210 210 209 208 223 254 269 278 282 267 254 255 274 289 288 292 297
293 236 193 194 190 188 188 187 191 197 199 192 190 190 201 211 211 204 209 214 241 270 279 267 276 276 280 278 269 293 293 298 306
325 283 255 194 184 185 181 183 197 186 196 192 190 190 202 208 201 203 209 231 260 275 270 275 290 306 292 288 276 282 293 306 305
309 278 260 191 186 182 181 179 194 187 183 187 187 192 201 200 193 201 221 248 262 265 261 265 244 253 277 280 276 277 292 301 300
336 317 239 182 185 185 176 179 183 179 178 181 182 183 191 184 188 202 223 247 259 262 274 247 247 266 269 267 272 304 328 307 304
31 52 104 168 188 167 170 180 167 156 165 162 162 164 177 198 211 205 229 251 264 274 278 288 291 302 334 294 276 293 327 321 317
15 73 109 187 195 169 129 296 124 144 153 157 155 154 157 237 220 226 235 261 273 297 300 340 305 290 296 309 270 290 295 314 327
153 185 281 119 161 165 131 123 109 96 180 153 160 219 199 196 221 228 254 274 309 311 334 288 283 285 281 277 287 273 280 291 296
111 99 118 118 131 151 140 146 186 205 192 186 179 191 170 207 246 257 286 306 288 252 256 263 264 260 257 250 254 257 268 249 245
142 106 130 146 151 150 151 136 137 156 151 179 158 172 185 207 221 262 287 296 297 302 296 296 304 308 275 261 258 263 269 266 269
88 78 104 116 116 95 117 130 135 130 139 155 161 149 208 226 238 246 260 265 275 283 298 292 298 302 293 298 311 308 290 277 274